San Juan, PR

12:14 PM AST on April 19, 2018 (GMT -0400)
Luis Munoz Marin International

Weather History for TJSJ - February, 2013

Change the Weather History Date:

Wednesday, February 6, 2013

  Actual Average Record
Temperature  
Mean Temperature 77 °F 78 °F  
Max Temperature 83 °F 83 °F 90 °F (1998)
Min Temperature 71 °F 72 °F 62 °F (1968)
Degree Days  
Heating Degree Days 0 0  
Month to date heating degree days 0 0  
Since 1 July heating degree days 0 0  
Cooling Degree Days 12 13  
Month to date cooling degree days 74 78  
Year to date cooling degree days 495 469  
Growing Degree Days 26 (Base 50)    
Moisture  
Dew Point 68 °F    
Average Humidity 73    
Maximum Humidity 90    
Minimum Humidity 55    
Precipitation  
Precipitation 0.08 in 0.09 in 2.25 in (1931)
Month to date precipitation 0.95 0.55  
Year to date precipitation 2.73 4.31  
Sea Level Pressure  
Sea Level Pressure 30.01 in    
Wind  
Wind Speed 6 mph (East)    
Max Wind Speed 21 mph    
Max Gust Speed 25 mph    
Visibility 10 miles    
Events      
T = Trace of Precipitation, MM = Missing Value Source: NWS Daily Summary

Daily Weather History Graph

Daily Weather History Graph

Search for Another Location

Airport or City:

Astronomy

Feb. 06, 2013 Rise Set
Actual Time 6:55 AM AST 6:20 PM AST
Civil Twilight 6:33 AM AST 6:43 PM AST
Nautical Twilight 6:07 AM AST 7:09 PM AST
Astronomical Twilight 5:41 AM AST 7:35 PM AST
Moon 3:20 AM AST (2/6) 2:49 PM AST (2/6)
Length of Visible Light 12h 10m
Length of Day
11h 25m
Waning Crescent, 17% of the Moon is Illuminated
Feb 6
Waning Crescent
Feb 10
New
Feb 17
First Quarter
Feb 25
Full
Mar 4
Last Quarter

Hourly Weather History & Observations

Time (AST) Temp. Heat Index Dew Point Humidity Pressure Visibility Wind Dir Wind Speed Gust Speed Precip Events Conditions
12:56 AM 73.0 °F - 70.0 °F 90% 30.01 in 10.0 mi Calm Calm - 0.02 in   Mostly Cloudy
1:56 AM 73.9 °F - 70.0 °F 87% 29.99 in 10.0 mi Calm Calm - N/A   Mostly Cloudy
2:56 AM 73.0 °F - 70.0 °F 90% 29.98 in 10.0 mi West 3.5 mph - N/A   Mostly Cloudy
3:56 AM 73.9 °F - 68.0 °F 82% 29.98 in 10.0 mi Calm Calm - N/A   Mostly Cloudy
4:56 AM 73.9 °F - 69.1 °F 85% 29.99 in 10.0 mi Calm Calm - N/A   Overcast
5:56 AM 73.9 °F - 68.0 °F 82% 30.00 in 10.0 mi Calm Calm - N/A   Mostly Cloudy
6:56 AM 72.0 °F - 68.0 °F 87% 30.03 in 10.0 mi ESE 8.1 mph - 0.06 in   Mostly Cloudy
7:56 AM 73.9 °F - 66.0 °F 76% 30.04 in 10.0 mi Calm Calm - N/A   Mostly Cloudy
8:56 AM 75.9 °F - 66.0 °F 71% 30.06 in 10.0 mi Calm Calm - N/A   Mostly Cloudy
9:56 AM 79.0 °F - 69.1 °F 72% 30.06 in 10.0 mi East 9.2 mph - N/A   Mostly Cloudy
10:56 AM 82.0 °F 83.8 °F 64.9 °F 56% 30.05 in 10.0 mi East 11.5 mph 21.9 mph N/A   Scattered Clouds
11:56 AM 81.0 °F 83.0 °F 66.0 °F 60% 30.04 in 10.0 mi East 16.1 mph 25.3 mph N/A   Scattered Clouds
12:56 PM 81.0 °F 83.0 °F 66.0 °F 60% 30.01 in 10.0 mi East 17.3 mph 23.0 mph N/A   Mostly Cloudy
1:56 PM 81.0 °F 83.0 °F 66.0 °F 60% 29.99 in 10.0 mi East 13.8 mph - N/A   Mostly Cloudy
2:56 PM 82.0 °F 83.8 °F 64.9 °F 56% 29.97 in 10.0 mi East 8.1 mph - N/A   Mostly Cloudy
3:56 PM 81.0 °F 83.0 °F 66.0 °F 60% 29.96 in 10.0 mi ENE 12.7 mph - N/A   Mostly Cloudy
4:56 PM 80.1 °F 82.3 °F 66.9 °F 64% 29.97 in 10.0 mi ENE 13.8 mph - N/A   Scattered Clouds
5:56 PM 78.1 °F - 68.0 °F 71% 29.97 in 10.0 mi East 12.7 mph - N/A   Partly Cloudy
6:56 PM 75.9 °F - 69.1 °F 79% 29.98 in 10.0 mi East 6.9 mph - N/A   Partly Cloudy
7:56 PM 75.9 °F - 69.1 °F 79% 30.00 in 10.0 mi East 5.8 mph - N/A   Scattered Clouds
8:56 PM 77.0 °F - 69.1 °F 76% 30.01 in 10.0 mi Calm Calm - N/A   Scattered Clouds
9:56 PM 75.9 °F - 69.1 °F 79% 30.02 in 10.0 mi ESE 4.6 mph - N/A   Scattered Clouds
10:56 PM 75.9 °F - 69.1 °F 79% 30.03 in 10.0 mi Calm Calm - N/A   Scattered Clouds
11:56 PM 75.9 °F - 68.0 °F 76% 30.02 in 10.0 mi Calm Calm - N/A   Scattered Clouds